• In Belarus
  • List of Countries
  • For 7 days
  • Water Temperature
  • Satellite Maps
  • Weather Map
  • Weather Widgets
  • user-avatar
    Login

    Hourly Weather Uige

    Today, 13 December, Wednesday

    Time Temperature Precipitation Wind Pressure Humidity
    00:00 +19°C° 0 mm 0 mps 691 mmHg 97%
    01:00 +19°C° 0 mm 0 mps 691 mmHg 98%
    02:00 +21°C° 0.1 mm 1 mps 691 mmHg 98%
    03:00 +21°C° 0.1 mm 1 mps 691 mmHg 98%
    04:00 +21°C° 0.1 mm 1 mps 691 mmHg 99%
    05:00 +21°C° 0 mm 1 mps 691 mmHg 98%
    06:00 +22°C° 0 mm 1 mps 692 mmHg 98%
    07:00 +22°C° 0 mm 1 mps 692 mmHg 98%
    08:00 +24°C° 0 mm 1 mps 692 mmHg 90%
    09:00 +25°C° 0 mm 1 mps 692 mmHg 83%
    10:00 +27°C° 0 mm 1 mps 692 mmHg 75%
    11:00 +28°C° 0.2 mm 1 mps 692 mmHg 71%
    12:00 +29°C° 0.2 mm 1 mps 691 mmHg 67%
    13:00 +31°C° 0 mm 1 mps 691 mmHg 64%
    14:00 +30°C° 0.3 mm 1 mps 691 mmHg 66%
    15:00 +30°C° 0.3 mm 1 mps 691 mmHg 67%
    16:00 +29°C° 0.3 mm 1 mps 690 mmHg 68%
    17:00 +25°C° 0.7 mm 0 mps 690 mmHg 75%
    18:00 +24°C° 0.7 mm 0 mps 690 mmHg 82%
    19:00 +22°C° 0.7 mm 0 mps 690 mmHg 89%
    20:00 +21°C° 1.6 mm 0 mps 691 mmHg 90%
    21:00 +21°C° 1.6 mm 0 mps 692 mmHg 92%
    22:00 +21°C° 1.6 mm 0 mps 692 mmHg 94%
    23:00 +21°C° 2.4 mm 0 mps 692 mmHg 95%

    Tomorrow, 14 December, Thursday

    Time Temperature Precipitation Wind Pressure Humidity
    00:00 +20°C° 2.4 mm 0 mps 692 mmHg 96%
    01:00 +22°C° 2.4 mm 1 mps 692 mmHg 97%
    02:00 +22°C° 1.2 mm 1 mps 692 mmHg 97%
    03:00 +22°C° 1.2 mm 1 mps 691 mmHg 97%
    04:00 +22°C° 1.2 mm 1 mps 691 mmHg 97%
    05:00 +22°C° 0.3 mm 1 mps 692 mmHg 97%
    06:00 +22°C° 0.3 mm 1 mps 692 mmHg 97%
    07:00 +20°C° 0.3 mm 0 mps 692 mmHg 97%
    08:00 +24°C° 0.1 mm 1 mps 692 mmHg 91%
    09:00 +25°C° 0.1 mm 1 mps 692 mmHg 86%
    10:00 +26°C° 0.1 mm 1 mps 692 mmHg 81%
    11:00 +28°C° 0.2 mm 1 mps 692 mmHg 72%
    12:00 +30°C° 0.2 mm 1 mps 692 mmHg 64%
    13:00 +32°C° 0.2 mm 1 mps 691 mmHg 56%
    14:00 +32°C° 0.2 mm 1 mps 691 mmHg 58%
    15:00 +31°C° 0.2 mm 1 mps 690 mmHg 61%
    16:00 +31°C° 0.2 mm 1 mps 689 mmHg 63%
    17:00 +28°C° 0.8 mm 1 mps 689 mmHg 72%
    18:00 +26°C° 0.8 mm 1 mps 689 mmHg 81%
    19:00 +23°C° 0.8 mm 1 mps 689 mmHg 91%
    20:00 +23°C° 1.2 mm 1 mps 690 mmHg 92%
    21:00 +23°C° 1.2 mm 1 mps 690 mmHg 94%
    22:00 +22°C° 1.2 mm 1 mps 691 mmHg 95%
    23:00 +22°C° 0.4 mm 1 mps 691 mmHg 96%

    Day after tomorrow, 15 December, Friday

    Time Temperature Precipitation Wind Pressure Humidity
    00:00 +22°C° 0.4 mm 1 mps 690 mmHg 97%
    01:00 +20°C° 0.4 mm 0 mps 690 mmHg 98%
    02:00 +20°C° 0 mm 0 mps 690 mmHg 98%
    03:00 +20°C° 0 mm 0 mps 690 mmHg 98%
    04:00 +20°C° 0 mm 0 mps 690 mmHg 99%
    05:00 +20°C° 0 mm 0 mps 690 mmHg 98%
    06:00 +20°C° 0 mm 0 mps 691 mmHg 97%
    07:00 +21°C° 0 mm 0 mps 691 mmHg 97%
    08:00 +24°C° 0.8 mm 1 mps 691 mmHg 92%
    09:00 +26°C° 0.8 mm 1 mps 692 mmHg 88%
    10:00 +27°C° 0.8 mm 1 mps 692 mmHg 83%
    11:00 +28°C° 1.3 mm 1 mps 691 mmHg 83%
    12:00 +28°C° 1.3 mm 1 mps 691 mmHg 82%
    13:00 +28°C° 1.3 mm 1 mps 690 mmHg 82%
    14:00 +28°C° 2.1 mm 1 mps 690 mmHg 85%
    15:00 +27°C° 2.1 mm 1 mps 689 mmHg 89%
    16:00 +27°C° 2.1 mm 1 mps 689 mmHg 92%
    17:00 +25°C° 1 mm 1 mps 689 mmHg 93%
    18:00 +24°C° 1 mm 1 mps 689 mmHg 95%
    19:00 +23°C° 1 mm 1 mps 689 mmHg 96%
    20:00 +23°C° 0.2 mm 1 mps 690 mmHg 96%
    21:00 +22°C° 0.2 mm 1 mps 690 mmHg 96%
    22:00 +22°C° 0.2 mm 1 mps 691 mmHg 97%
    23:00 +22°C° 0.2 mm 1 mps 691 mmHg 97%

    16 December, Saturday

    Time Temperature Precipitation Wind Pressure Humidity
    00:00 +22°C° 0.2 mm 1 mps 690 mmHg 98%
    01:00 +22°C° 0.2 mm 1 mps 690 mmHg 98%
    02:00 +22°C° 0.4 mm 1 mps 690 mmHg 98%
    03:00 +22°C° 0.4 mm 1 mps 690 mmHg 98%
    04:00 +22°C° 0.4 mm 1 mps 690 mmHg 98%
    05:00 +22°C° 0.4 mm 1 mps 690 mmHg 98%
    06:00 +22°C° 0.4 mm 1 mps 690 mmHg 98%
    07:00 +22°C° 0.4 mm 1 mps 691 mmHg 98%
    08:00 +22°C° 0.4 mm 1 mps 691 mmHg 96%
    09:00 +23°C° 0.4 mm 1 mps 692 mmHg 95%
    10:00 +23°C° 0.4 mm 1 mps 692 mmHg 94%
    11:00 +24°C° 0.2 mm 1 mps 691 mmHg 89%
    12:00 +25°C° 0.2 mm 1 mps 691 mmHg 84%
    13:00 +26°C° 0.2 mm 1 mps 690 mmHg 79%
    14:00 +26°C° 0.2 mm 1 mps 690 mmHg 80%
    15:00 +26°C° 0.2 mm 1 mps 689 mmHg 80%
    16:00 +26°C° 0.2 mm 1 mps 689 mmHg 81%
    17:00 +25°C° 0.1 mm 1 mps 689 mmHg 86%
    18:00 +23°C° 0.1 mm 1 mps 690 mmHg 90%
    19:00 +20°C° 0.1 mm 0 mps 690 mmHg 94%
    20:00 +20°C° 0 mm 0 mps 690 mmHg 94%
    21:00 +20°C° 0 mm 0 mps 690 mmHg 94%
    22:00 +20°C° 0 mm 0 mps 691 mmHg 94%
    23:00 +22°C° 0 mm 1 mps 690 mmHg 94%

    17 December, Sunday

    Time Temperature Precipitation Wind Pressure Humidity
    00:00 +22°C° 0 mm 1 mps 690 mmHg 95%
    01:00 +21°C° 0 mm 1 mps 690 mmHg 96%
    02:00 +21°C° 0 mm 1 mps 690 mmHg 97%
    03:00 +21°C° 0 mm 1 mps 689 mmHg 97%
    04:00 +21°C° 0 mm 1 mps 689 mmHg 98%
    05:00 +19°C° 0 mm 0 mps 690 mmHg 96%
    06:00 +20°C° 0 mm 0 mps 690 mmHg 95%
    07:00 +20°C° 0 mm 0 mps 691 mmHg 94%
    08:00 +22°C° 0.1 mm 0 mps 691 mmHg 86%
    09:00 +24°C° 0.1 mm 0 mps 692 mmHg 79%
    10:00 +27°C° 0.1 mm 0 mps 692 mmHg 71%
    11:00 +29°C° 0.3 mm 1 mps 692 mmHg 68%
    12:00 +30°C° 0.3 mm 1 mps 691 mmHg 64%
    13:00 +30°C° 0.3 mm 2 mps 690 mmHg 61%
    14:00 +29°C° 0.9 mm 2 mps 690 mmHg 71%
    15:00 +28°C° 0.9 mm 2 mps 689 mmHg 80%
    16:00 +27°C° 0.9 mm 2 mps 689 mmHg 90%
    17:00 +26°C° 0.4 mm 1 mps 689 mmHg 92%
    18:00 +24°C° 0.4 mm 1 mps 690 mmHg 95%
    19:00 +23°C° 0.4 mm 1 mps 690 mmHg 97%
    20:00 +23°C° 0.3 mm 1 mps 690 mmHg 97%
    21:00 +22°C° 0.3 mm 1 mps 691 mmHg 98%
    22:00 +22°C° 0.3 mm 1 mps 691 mmHg 98%
    23:00 +22°C° 0.2 mm 1 mps 691 mmHg 98%

    18 December, Monday

    Time Temperature Precipitation Wind Pressure Humidity
    00:00 +22°C° 0.2 mm 1 mps 691 mmHg 99%
    01:00 +21°C° 0.2 mm 1 mps 690 mmHg 99%
    02:00 +22°C° 0 mm 1 mps 690 mmHg 99%
    03:00 +22°C° 0 mm 1 mps 690 mmHg 99%
    04:00 +22°C° 0 mm 1 mps 690 mmHg 99%
    05:00 +22°C° 0 mm 1 mps 691 mmHg 98%
    06:00 +20°C° 0 mm 0 mps 691 mmHg 98%
    07:00 +20°C° 0 mm 0 mps 691 mmHg 98%
    08:00 +22°C° 0.1 mm 0 mps 692 mmHg 91%
    09:00 +23°C° 0.1 mm 0 mps 692 mmHg 84%
    10:00 +25°C° 0.1 mm 0 mps 692 mmHg 77%
    11:00 +28°C° 0.4 mm 1 mps 692 mmHg 74%
    12:00 +29°C° 0.4 mm 1 mps 691 mmHg 71%
    13:00 +29°C° 0.4 mm 1 mps 690 mmHg 67%
    14:00 +29°C° 0.8 mm 1 mps 690 mmHg 73%
    15:00 +28°C° 0.8 mm 1 mps 689 mmHg 79%
    16:00 +27°C° 0.8 mm 1 mps 689 mmHg 85%
    17:00 +26°C° 0.5 mm 1 mps 689 mmHg 89%
    18:00 +24°C° 0.5 mm 1 mps 689 mmHg 92%
    19:00 +23°C° 0.5 mm 1 mps 690 mmHg 95%
    20:00 +23°C° 0.4 mm 1 mps 690 mmHg 96%
    21:00 +22°C° 0.4 mm 1 mps 691 mmHg 97%
    22:00 +22°C° 0.4 mm 1 mps 691 mmHg 98%
    23:00 +22°C° 0.5 mm 1 mps 691 mmHg 98%
    Show more